Погода в Эль-Хуфуфе

Саудовская Аравия     25°22′05″N   49°35′15″E
темп.,
°C
ветер,
м/с
пор.,
м/с
влажн.,
%
обл.,
%
осадки,
мм/ч
давл.,
гПа
погр.,
м
24 июля, сб
сб2400:00+35св33330 0.0 99621
03:00+35сз22260 0.0 99611
06:00+35з11170 0.0 99712
09:00+42с46130 0.0 998897
12:00+46с911100 0.0 9962710
15:00+46св1010110 0.0 9953119
18:00+42св710170 0.0 996302
21:00+35всв44305 0.0 99946
25 июля, вс
вс2500:00+33всв3340100 0.0 99840
03:00+31юз224630 0.0 99711
06:00+34зсз333412 0.0 99926
09:00+40с331784 0.0 999787
12:00+44св33132 0.0 9981831
15:00+45св441133 0.0 9962309
18:00+43всв3314100 0.0 99637
21:00+38св44193 0.0 99852
26 июля, пн
пн2600:00+35в23300 0.0 99818
03:00+33ссв33390 0.0 99814
06:00+33ю11470 0.0 99814
09:00+39ссз22242 0.0 999595
12:00+44ссв111524 0.0 9971641
15:00+46всв431250 0.0 9952340
18:00+44св4515100 0.0 99592
21:00+39всв332523 0.0 99739
27 июля, вт
вт2700:00+37св34250 0.0 99732
03:00+33ссв22447 0.0 99612
06:00+34зсз223326 0.0 99712
09:00+42сз34125 0.0 996664
12:00+46сз4485 0.0 9941728
15:00+48ссз687100 0.0 9924346
18:00+43св8111283 0.0 992313
21:00+38св44185 0.0 99428
28 июля, ср
ср2800:00+35ссв332526 0.0 99414
03:00+34с333097 0.0 99314
06:00+34сз23209 0.0 99412
09:00+42сз231388 0.0 994531
12:00+47ссз55953 0.0 9921886
15:00+48ссз7117100 0.0 9904938
18:00+43св791184 0.0 991263
21:00+37св442197 0.0 99330